Flag for U.S.A. Weather past 2 weeks in Durham, North Carolina, U.S.A.

Now
41 °F

Light rain. Mostly cloudy.


Feels Like: 37 °F
Forecast: 30 / 44 °F
Wind: 6 mph from North

Location: Raleigh-Durham International Airport

Current Time: Jan 27, 2015 at 12:54:03 AM

Latest Report: Jan 26, 2015 at 11:51 PM


Visibility: 10 mi

Pressure: 29.70 "Hg

Humidity: 74%

Dew point: 33 °F

Location of DurhamLocation

Historic Weather in Durham — Graph

°F

Durham temperature yesterday

Maximum temperature yesterday: 49 °F (at 2:51 PM)
Minimum temperature yesterday: 39 °F (at 3:51 AM)
Average temperature yesterday: 44 °F

Past Weeks' High & Low Weather Summary

 TemperatureHumidityPressure
High67 °F (Jan 20, 2:51 PM)93% (Jan 12, 5:51 AM)30.52 "Hg (Jan 12, 5:51 AM)
Low28 °F (Jan 14, 5:51 AM)24% (Jan 19, 2:51 PM)29.55 "Hg (Jan 24, 6:51 AM)
Average42 °F71%30.07 "Hg
* Reported Jan 11 10:51 PM — Jan 26 10:51 PM, Durham, Weather by CustomWeather, © 2014

Note: Actual official high and low records may vary slightly from our data, if they occured in-between our weather recording intervals... More about our weather records

Advertising

Durham weather history for previous 24 hours

 ConditionsComfort  
Time TempWeatherWind HumidityBarometerVisibility
10:51 PM
Jan 26
42 °FDrizzle. Mostly cloudy.5 mph79%29.69 "Hg9 mi
9:51 PM42 °FLight rain. Mostly cloudy.6 mph85%29.69 "Hg7 mi
8:51 PM43 °FLight rain. Fog.6 mph86%29.68 "Hg6 mi
7:51 PM44 °FLight rain. Mostly cloudy.3 mph79%29.67 "Hg10 mi
6:51 PM45 °FOvercast.3 mph80%29.66 "Hg10 mi
5:51 PM46 °FMostly cloudy.No wind77%29.63 "Hg10 mi
4:51 PM47 °FBroken clouds.3 mph77%29.61 "Hg10 mi
3:51 PM48 °FMostly cloudy.5 mph74%29.60 "Hg10 mi
2:51 PM49 °FMostly cloudy.6 mph71%29.58 "Hg10 mi
1:51 PM48 °FMostly cloudy.No wind80%29.59 "Hg10 mi
12:51 PM48 °FMostly cloudy.3 mph80%29.62 "Hg10 mi
11:51 AM48 °FBroken clouds.No wind80%29.63 "Hg10 mi
10:51 AM46 °FBroken clouds.5 mph83%29.65 "Hg10 mi
9:51 AM44 °FBroken clouds.5 mph89%29.64 "Hg7 mi
8:51 AM41 °FLight rain. Fog.No wind93%29.68 "Hg4 mi
7:51 AM40 °FLight rain. Fog.3 mph89%29.68 "Hg4 mi
6:51 AM39 °FLight rain. Overcast.No wind93%29.70 "Hg10 mi
5:51 AM40 °FLight rain. Overcast.No wind83%29.69 "Hg10 mi
4:51 AM40 °FMostly cloudy.5 mph80%29.70 "Hg10 mi
3:51 AM39 °FOvercast.No wind82%29.71 "Hg10 mi
2:51 AM40 °FPassing clouds.No wind80%29.73 "Hg10 mi
1:51 AM41 °FOvercast.No wind74%29.75 "Hg10 mi
12:51 AM41 °FPassing clouds.5 mph74%29.76 "Hg10 mi
Weather by CustomWeather, © 2014

See weather overviewHow to use our weather pages